Volver al catálogo

BREEZE-M R/B

ActivoHEO
NORAD 39164·ROCKET BODY·🇷🇺 Russia

Lanzado May 14, 2013 desde Baikonur Cosmodrome

Loading…

Próximos Pases (próximas 24 horas)

TLE

ActualizadoSource: Space-Track

Época: Sep 11, 2026, 16:59 UTC

1 39164U 13022B   26254.70811744 -.00000291  00000-0  00000-0 0  9995
2 39164  17.3106 190.1493 5406434 121.6988 302.1384  2.02200203 98459

Sigue BREEZE-M R/B en tiempo real con AllMySat

Download on the App Store